Weather History for KCPC - November, 2013

Change the Weather History Date:

Friday, November 1, 2013

  Actual Average (KLBT) Record (KLBT)
Temperature  
Mean Temperature 74 °F 58 °F  
Max Temperature 81 °F 72 °F - ()
Min Temperature 68 °F 45 °F - ()
Degree Days  
Heating Degree Days 0 8  
Month to date heating degree days 8  
Since 1 July heating degree days 140  
Cooling Degree Days 10 1  
Month to date cooling degree days 1  
Year to date cooling degree days 1895  
Growing Degree Days 24 (Base 50)    
Moisture  
Dew Point 66 °F    
Average Humidity 81    
Maximum Humidity 96    
Minimum Humidity 56    
Precipitation  
Precipitation 0.14 in 0.08 in - ()
Month to date precipitation 0.08  
Year to date precipitation 37.84  
Sea Level Pressure  
Sea Level Pressure 29.84 in    
Wind  
Wind Speed 8 mph (SSW)    
Max Wind Speed 21 mph    
Max Gust Speed 30 mph    
Visibility 9 miles    
Events Rain    
T = Trace of Precipitation, MM = Missing Value Source: NWS Daily Summary

Daily Weather History Graph

Daily Weather History Graph

Search for Another Location

Airport or City:

Trip Planner

Search our weather history database for the weather conditions in past years. The results will help you decide how hot, cold, wet, or windy it might be!

Date:

Astronomy

Nov. 01, 2013 Rise Set
Actual Time 7:34 AM EDT 6:21 PM EDT
Civil Twilight 7:09 AM EDT 6:47 PM EDT
Nautical Twilight 6:39 AM EDT 7:17 PM EDT
Astronomical Twilight 6:10 AM EDT 7:46 PM EDT
Moon 5:30 AM EDT (11/1) 5:09 PM EDT (11/1)
Length of Visible Light 11h 38m
Length of Day
10h 46m
Waning Crescent, 4% of the Moon is Illuminated
Nov 1
Waning Crescent
Nov 3
New
Nov 10
First Quarter
Nov 17
Full
Nov 25
Last Quarter

Hourly Weather History & Observations

Time (EDT) Temp. Heat Index Dew Point Humidity Pressure Visibility Wind Dir Wind Speed Gust Speed Precip Events Conditions
12:15 AM 71.1 °F - 66.7 °F 86% 29.98 in 10.0 mi South 5.8 mph - N/A   Light Drizzle
12:35 AM 70.0 °F - 67.1 °F 91% 29.99 in 4.0 mi South 8.1 mph 17.3 mph 0.01 in Rain Heavy Rain
12:55 AM 69.8 °F - 67.1 °F 91% 29.96 in 10.0 mi South 5.8 mph - 0.01 in   Overcast
1:15 AM 69.6 °F - 67.1 °F 92% 29.96 in 10.0 mi South 5.8 mph - N/A   Overcast
1:35 AM 69.4 °F - 67.1 °F 92% 29.96 in 10.0 mi South 6.9 mph - N/A   Overcast
1:55 AM 69.4 °F - 66.6 °F 91% 29.95 in 10.0 mi South 6.9 mph - N/A   Overcast
2:15 AM 69.3 °F - 66.2 °F 90% 29.94 in 10.0 mi South 5.8 mph - N/A   Overcast
2:35 AM 69.1 °F - 66.2 °F 91% 29.93 in 10.0 mi South 6.9 mph - N/A   Scattered Clouds
2:55 AM 68.9 °F - 66.2 °F 91% 29.92 in 10.0 mi South 5.8 mph - N/A   Scattered Clouds
3:15 AM 68.9 °F - 66.2 °F 91% 29.91 in 10.0 mi South 5.8 mph - N/A   Clear
3:35 AM 68.5 °F - 66.2 °F 92% 29.89 in 10.0 mi South 5.8 mph - N/A   Clear
3:55 AM 68.5 °F - 66.2 °F 92% 29.88 in 10.0 mi South 4.6 mph - N/A   Scattered Clouds
4:15 AM 68.5 °F - 66.2 °F 92% 29.88 in 10.0 mi South 5.8 mph - N/A   Clear
4:35 AM 68.5 °F - 66.2 °F 92% 29.87 in 10.0 mi South 5.8 mph - N/A   Clear
4:55 AM 68.5 °F - 66.4 °F 93% 29.86 in 10.0 mi South 5.8 mph - N/A   Clear
5:15 AM 68.7 °F - 66.4 °F 92% 29.86 in 10.0 mi South 5.8 mph - N/A   Clear
5:35 AM 68.9 °F - 66.6 °F 92% 29.85 in 10.0 mi South 5.8 mph - N/A   Clear
5:55 AM 68.9 °F - 66.6 °F 92% 29.85 in 10.0 mi South 6.9 mph - N/A   Clear
6:15 AM 69.4 °F - 66.7 °F 91% 29.85 in 10.0 mi South 9.2 mph - N/A   Clear
6:35 AM 69.8 °F - 66.6 °F 89% 29.85 in 10.0 mi South 6.9 mph - N/A   Clear
6:55 AM 70.0 °F - 66.4 °F 88% 29.86 in 10.0 mi South 9.2 mph - N/A   Clear
7:15 AM 70.2 °F - 66.4 °F 88% 29.86 in 10.0 mi South 9.2 mph - N/A   Clear
7:35 AM 69.6 °F - 66.2 °F 89% 29.87 in 10.0 mi SSW 5.8 mph - N/A   Clear
7:55 AM 69.6 °F - 66.2 °F 89% 29.87 in 10.0 mi SSW 5.8 mph - N/A   Clear
8:15 AM 69.4 °F - 66.2 °F 89% 29.88 in 10.0 mi SSW 5.8 mph - N/A   Clear
8:35 AM 70.9 °F - 66.6 °F 86% 29.88 in 10.0 mi SSW 8.1 mph - N/A   Clear
8:55 AM 72.0 °F - 66.9 °F 84% 29.89 in 10.0 mi SSW 9.2 mph - N/A   Scattered Clouds
9:15 AM 73.0 °F - 67.3 °F 82% 29.88 in 10.0 mi SSW 12.7 mph - N/A   Clear
9:35 AM 73.6 °F - 67.3 °F 81% 29.88 in 10.0 mi SSW 9.2 mph 17.3 mph N/A   Clear
9:55 AM 74.3 °F - 67.5 °F 79% 29.88 in 10.0 mi SSW 10.4 mph 18.4 mph N/A   Clear
10:15 AM 76.8 °F - 68.0 °F 74% 29.88 in 10.0 mi SSW 15.0 mph - N/A   Clear
10:35 AM 78.4 °F - 67.5 °F 69% 29.88 in 10.0 mi SSW 17.3 mph 24.2 mph N/A   Scattered Clouds
10:55 AM 78.8 °F - 67.1 °F 67% 29.88 in 10.0 mi SSW 17.3 mph 29.9 mph N/A   Scattered Clouds
11:15 AM 78.8 °F - 66.2 °F 65% 29.87 in 7.0 mi SSW 17.3 mph 29.9 mph N/A   Scattered Clouds
11:35 AM 79.9 °F - 65.7 °F 62% 29.87 in 7.0 mi SW 16.1 mph 27.6 mph N/A   Clear
11:55 AM 79.7 °F - 65.1 °F 61% 29.86 in 7.0 mi SW 20.7 mph 28.8 mph N/A   Clear
12:15 PM 78.8 °F - 65.1 °F 63% 29.86 in 10.0 mi SW 16.1 mph 24.2 mph N/A   Scattered Clouds
12:35 PM 78.8 °F - 65.5 °F 64% 29.85 in 10.0 mi SSW 12.7 mph 20.7 mph N/A   Mostly Cloudy
12:55 PM 78.8 °F - 64.6 °F 62% 29.84 in 10.0 mi SW 12.7 mph 21.9 mph N/A   Mostly Cloudy
1:15 PM 78.3 °F - 64.4 °F 62% 29.82 in 10.0 mi SW 13.8 mph 21.9 mph N/A   Overcast
1:35 PM 78.8 °F - 64.2 °F 61% 29.81 in 10.0 mi SSW 15.0 mph 19.6 mph N/A   Overcast
1:55 PM 79.7 °F - 64.2 °F 59% 29.80 in 10.0 mi SSW 15.0 mph 20.7 mph N/A   Overcast
2:15 PM 81.3 °F 82.9 °F 64.0 °F 56% 29.79 in 10.0 mi SSW 11.5 mph 19.6 mph N/A   Overcast
2:35 PM 80.1 °F 81.6 °F 63.7 °F 57% 29.78 in 10.0 mi SSW 10.4 mph 23.0 mph N/A   Overcast
2:55 PM 79.3 °F - 63.7 °F 59% 29.78 in 10.0 mi SSW 16.1 mph 23.0 mph N/A   Overcast
3:15 PM 79.9 °F - 63.9 °F 58% 29.77 in 10.0 mi SSW 16.1 mph 20.7 mph N/A   Scattered Clouds
3:35 PM 79.7 °F - 64.2 °F 59% 29.76 in 10.0 mi SSW 12.7 mph 19.6 mph N/A   Clear
3:55 PM 79.3 °F - 64.0 °F 59% 29.75 in 10.0 mi SSW 12.7 mph 21.9 mph N/A   Scattered Clouds
4:15 PM 79.0 °F - 64.0 °F 60% 29.76 in 10.0 mi SSW 12.7 mph 19.6 mph N/A   Scattered Clouds
6:15 PM 76.3 °F - 64.9 °F 68% 29.74 in 10.0 mi South 9.2 mph 16.1 mph N/A   Scattered Clouds
6:35 PM 74.3 °F - 66.7 °F 77% 29.75 in 10.0 mi South 6.9 mph - N/A   Overcast
6:55 PM 72.5 °F - 67.6 °F 85% 29.75 in 10.0 mi South 5.8 mph - N/A Rain Light Rain
7:15 PM 72.1 °F - 68.0 °F 87% 29.75 in 10.0 mi South 6.9 mph - N/A   Overcast
7:35 PM 72.5 °F - 67.5 °F 84% 29.75 in 10.0 mi South 9.2 mph - N/A   Overcast
7:55 PM 72.7 °F - 67.3 °F 83% 29.76 in 10.0 mi SSW 8.1 mph - N/A   Light Drizzle
8:15 PM 72.5 °F - 67.3 °F 84% 29.76 in 10.0 mi SSW 5.8 mph - N/A   Overcast
8:35 PM 71.6 °F - 67.6 °F 87% 29.76 in 10.0 mi Calm Calm - N/A Rain Light Rain
8:55 PM 71.6 °F - 68.0 °F 88% 29.76 in 7.0 mi Calm Calm - 0.01 in Rain Rain
9:15 PM 70.0 °F - 68.4 °F 95% 29.77 in 5.0 mi Calm Calm - 0.01 in Rain Light Rain
9:35 PM 69.3 °F - 67.6 °F 95% 29.77 in 4.0 mi Calm Calm - 0.03 in Rain Rain
9:55 PM 68.9 °F - 67.5 °F 95% 29.77 in 5.0 mi West 5.8 mph - 0.04 in   Drizzle
10:15 PM 68.0 °F - 66.6 °F 95% 29.77 in 5.0 mi Calm Calm - 0.03 in Rain Rain
10:35 PM 68.0 °F - 66.6 °F 95% 29.77 in 10.0 mi Calm Calm - 0.04 in Rain Light Rain
10:55 PM 68.0 °F - 66.6 °F 95% 29.77 in 10.0 mi Calm Calm - 0.04 in   Overcast
11:15 PM 68.0 °F - 66.7 °F 96% 29.77 in 7.0 mi Calm Calm - N/A Rain Rain
11:35 PM 68.0 °F - 66.7 °F 96% 29.76 in 10.0 mi South 4.6 mph - 0.01 in Rain Light Rain
11:55 PM 68.2 °F - 66.9 °F 96% 29.75 in 7.0 mi South 4.6 mph - 0.04 in Rain Rain